| time (UTC) | temp C | wind direction | speed KPH | gust KPH | rain 1hr cm | rain 24hr cm | rain mn cm | humidity % | barometer mb |
| 20260506223041 | 25 | 207 | 3.2 | 11.3 | 0.00 | 0.00 | 0.00 | 72 | 1011.9 |
| 20260506222533 | 25 | 211 | 4.8 | 11.3 | 0.00 | 0.00 | 0.00 | 72 | 1012.1 |
| 20260506222029 | 25 | 221 | 1.6 | 14.5 | 0.00 | 0.00 | 0.00 | 71 | 1012.2 |
| 20260506221538 | 25 | 225 | 4.8 | 14.5 | 0.00 | 0.00 | 0.00 | 71 | 1012.3 |
| 20260506221029 | 25 | 225 | 3.2 | 14.5 | 0.00 | 0.00 | 0.00 | 70 | 1012.1 |
| 20260506220529 | 25 | 238 | 4.8 | 14.5 | 0.00 | 0.00 | 0.00 | 70 | 1012.0 |
| 20260506220044 | 25 | 194 | 6.4 | 14.5 | 0.00 | 0.00 | 0.00 | 70 | 1012.1 |
| 20260506215529 | 25 | 233 | 4.8 | 16.1 | 0.00 | 0.00 | 0.00 | 69 | 1012.1 |
| 20260506215029 | 25 | 207 | 8.0 | 16.1 | 0.00 | 0.00 | 0.00 | 69 | 1012.1 |
| 20260506214542 | 25 | 219 | 6.4 | 24.1 | 0.00 | 0.00 | 0.00 | 69 | 1012.1 |
| 20260506214028 | 25 | 232 | 8.0 | 24.1 | 0.00 | 0.00 | 0.00 | 68 | 1012.0 |
| 20260506213534 | 25 | 223 | 12.9 | 24.1 | 0.00 | 0.00 | 0.00 | 68 | 1012.0 |
| 20260506213044 | 25 | 192 | 11.3 | 25.7 | 0.00 | 0.00 | 0.00 | 68 | 1012.0 |
| 20260506212534 | 25 | 209 | 9.7 | 25.7 | 0.00 | 0.00 | 0.00 | 68 | 1011.9 |
| 20260506212033 | 26 | 218 | 9.7 | 20.9 | 0.00 | 0.00 | 0.00 | 68 | 1011.9 |
| 20260506211540 | 26 | 210 | 4.8 | 22.5 | 0.00 | 0.00 | 0.00 | 68 | 1011.8 |
| 20260506211032 | 26 | 224 | 8.0 | 22.5 | 0.00 | 0.00 | 0.00 | 68 | 1011.7 |
| 20260506210530 | 25 | 199 | 11.3 | 22.5 | 0.00 | 0.00 | 0.00 | 68 | 1011.8 |
| 20260506210041 | 25 | 187 | 6.4 | 19.3 | 0.00 | 0.00 | 0.00 | 68 | 1012.1 |
| 20260506205532 | 25 | 227 | 8.0 | 19.3 | 0.00 | 0.00 | 0.00 | 67 | 1012.1 |
| 20260506205032 | 26 | 185 | 6.4 | 16.1 | 0.00 | 0.00 | 0.00 | 67 | 1012.1 |
| 20260506204539 | 26 | 193 | 3.2 | 19.3 | 0.00 | 0.00 | 0.00 | 67 | 1012.2 |
| 20260506204032 | 26 | 204 | 9.7 | 20.9 | 0.00 | 0.00 | 0.00 | 66 | 1012.2 |
| 20260506203531 | 26 | 260 | 11.3 | 24.1 | 0.00 | 0.00 | 0.00 | 65 | 1012.3 |
| 20260506203047 | 26 | 193 | 12.9 | 27.4 | 0.00 | 0.00 | 0.00 | 65 | 1012.4 |
| 20260506202534 | 26 | 221 | 14.5 | 27.4 | 0.00 | 0.00 | 0.00 | 64 | 1012.6 |
| 20260506202033 | 26 | 205 | 11.3 | 27.4 | 0.00 | 0.00 | 0.00 | 64 | 1012.7 |
| 20260506201542 | 26 | 205 | 11.3 | 27.4 | 0.00 | 0.00 | 0.00 | 64 | 1012.7 |
| 20260506201034 | 26 | 198 | 6.4 | 19.3 | 0.00 | 0.00 | 0.00 | 64 | 1012.7 |
| 20260506200531 | 27 | 192 | 9.7 | 22.5 | 0.00 | 0.00 | 0.00 | 64 | 1012.6 |
| 20260506200041 | 26 | 234 | 8.0 | 22.5 | 0.00 | 0.00 | 0.00 | 64 | 1012.8 |
| 20260506195532 | 26 | 199 | 8.0 | 22.5 | 0.00 | 0.00 | 0.00 | 64 | 1012.7 |
| 20260506195031 | 26 | 200 | 11.3 | 20.9 | 0.00 | 0.00 | 0.00 | 64 | 1012.9 |
| 20260506194555 | 26 | 223 | 8.0 | 20.9 | 0.00 | 0.00 | 0.00 | 64 | 1012.9 |
| 20260506194035 | 26 | 150 | 6.4 | 25.7 | 0.00 | 0.00 | 0.00 | 65 | 1013.0 |
| 20260506193536 | 26 | 190 | 11.3 | 25.7 | 0.00 | 0.00 | 0.00 | 64 | 1013.0 |
| 20260506193037 | 26 | 206 | 8.0 | 19.3 | 0.00 | 0.00 | 0.00 | 65 | 1013.1 |
| 20260506192532 | 26 | 235 | 6.4 | 17.7 | 0.00 | 0.00 | 0.00 | 65 | 1013.2 |
| 20260506192032 | 26 | 213 | 9.7 | 19.3 | 0.00 | 0.00 | 0.00 | 65 | 1013.3 |
| 20260506191545 | 26 | 209 | 8.0 | 22.5 | 0.00 | 0.00 | 0.00 | 65 | 1013.3 |
| 20260506191033 | 26 | 214 | 9.7 | 22.5 | 0.00 | 0.00 | 0.00 | 66 | 1013.4 |
| 20260506190535 | 25 | 202 | 6.4 | 16.1 | 0.00 | 0.00 | 0.00 | 67 | 1013.6 |
| 20260506190044 | 25 | 209 | 6.4 | 12.9 | 0.00 | 0.00 | 0.00 | 67 | 1013.8 |
| 20260506185531 | 25 | 202 | 6.4 | 17.7 | 0.00 | 0.00 | 0.00 | 67 | 1013.8 |
| 20260506185030 | 25 | 205 | 6.4 | 22.5 | 0.00 | 0.00 | 0.00 | 66 | 1013.8 |
| 20260506184539 | 26 | 205 | 11.3 | 22.5 | 0.00 | 0.00 | 0.00 | 65 | 1014.0 |
| 20260506184032 | 26 | 212 | 8.0 | 22.5 | 0.00 | 0.00 | 0.00 | 65 | 1014.0 |
| 20260506183532 | 26 | 177 | 9.7 | 17.7 | 0.00 | 0.00 | 0.00 | 66 | 1014.1 |
| 20260506183038 | 26 | 229 | 3.2 | 17.7 | 0.00 | 0.00 | 0.00 | 66 | 1014.2 |
| 20260506182531 | 26 | 242 | 6.4 | 17.7 | 0.00 | 0.00 | 0.00 | 65 | 1014.1 |
| 20260506182034 | 26 | 195 | 8.0 | 16.1 | 0.00 | 0.00 | 0.00 | 65 | 1014.3 |
| 20260506181546 | 26 | 178 | 8.0 | 16.1 | 0.00 | 0.00 | 0.00 | 64 | 1014.3 |
| 20260506181031 | 26 | 221 | 9.7 | 17.7 | 0.00 | 0.00 | 0.00 | 64 | 1014.3 |
| 20260506180532 | 26 | 219 | 11.3 | 20.9 | 0.00 | 0.00 | 0.00 | 64 | 1014.3 |
| 20260506180050 | 26 | 237 | 11.3 | 24.1 | 0.00 | 0.00 | 0.00 | 63 | 1014.3 |
| 20260506175536 | 26 | 219 | 11.3 | 22.5 | 0.00 | 0.00 | 0.00 | 64 | 1014.2 |
| 20260506175030 | 26 | 210 | 8.0 | 22.5 | 0.00 | 0.00 | 0.00 | 65 | 1014.1 |
| 20260506174540 | 26 | 186 | 11.3 | 29.0 | 0.00 | 0.00 | 0.00 | 65 | 1014.0 |
| 20260506174032 | 26 | 247 | 11.3 | 29.0 | 0.00 | 0.00 | 0.00 | 65 | 1014.0 |
| 20260506173531 | 26 | 215 | 11.3 | 20.9 | 0.00 | 0.00 | 0.00 | 65 | 1014.1 |
| 20260506173048 | 26 | 214 | 3.2 | 16.1 | 0.00 | 0.00 | 0.00 | 66 | 1014.0 |
| 20260506172531 | 26 | 191 | 9.7 | 16.1 | 0.00 | 0.00 | 0.00 | 65 | 1014.0 |
| 20260506172030 | 26 | 197 | 6.4 | 20.9 | 0.00 | 0.00 | 0.00 | 66 | 1014.0 |
| 20260506171552 | 26 | 211 | 9.7 | 25.7 | 0.00 | 0.00 | 0.00 | 65 | 1014.0 |
| 20260506171035 | 26 | 217 | 12.9 | 25.7 | 0.00 | 0.00 | 0.00 | 65 | 1013.9 |
| 20260506170533 | 26 | 233 | 6.4 | 19.3 | 0.00 | 0.00 | 0.00 | 66 | 1014.0 |
| 20260506170040 | 26 | 207 | 6.4 | 19.3 | 0.00 | 0.00 | 0.00 | 66 | 1014.0 |
| 20260506165534 | 26 | 191 | 4.8 | 19.3 | 0.00 | 0.00 | 0.00 | 67 | 1014.1 |
| 20260506165035 | 25 | 213 | 6.4 | 25.7 | 0.00 | 0.00 | 0.00 | 67 | 1014.1 |
| 20260506164541 | 25 | 226 | 9.7 | 25.7 | 0.00 | 0.00 | 0.00 | 67 | 1014.1 |
| 20260506164034 | 25 | 193 | 12.9 | 25.7 | 0.00 | 0.00 | 0.00 | 67 | 1014.2 |
| 20260506163529 | 25 | 186 | 9.7 | 24.1 | 0.00 | 0.00 | 0.00 | 68 | 1014.2 |
| 20260506163049 | 25 | 213 | 12.9 | 24.1 | 0.00 | 0.00 | 0.00 | 69 | 1014.2 |
| 20260506162532 | 24 | 203 | 8.0 | 20.9 | 0.00 | 0.00 | 0.00 | 71 | 1014.2 |
| 20260506162033 | 23 | 131 | 6.4 | 16.1 | 0.00 | 0.00 | 0.00 | 72 | 1014.1 |
| 20260506161540 | 23 | 199 | 6.4 | 14.5 | 0.00 | 0.00 | 0.00 | 74 | 1014.3 |
| 20260506161031 | 23 | 189 | 6.4 | 17.7 | 0.00 | 0.00 | 0.00 | 75 | 1014.6 |
| 20260506160531 | 22 | 231 | 8.0 | 17.7 | 0.00 | 0.00 | 0.00 | 75 | 1014.7 |
| 20260506160044 | 22 | 215 | 8.0 | 17.7 | 0.00 | 0.00 | 0.00 | 76 | 1014.7 |
| 20260506155531 | 22 | 216 | 9.7 | 17.7 | 0.00 | 0.00 | 0.00 | 77 | 1014.9 |
| 20260506155031 | 21 | 205 | 6.4 | 14.5 | 0.00 | 0.00 | 0.00 | 77 | 1015.1 |
| 20260506154542 | 21 | 226 | 4.8 | 12.9 | 0.00 | 0.00 | 0.00 | 78 | 1015.1 |
| 20260506154032 | 21 | 219 | 4.8 | 14.5 | 0.00 | 0.00 | 0.00 | 79 | 1015.1 |
| 20260506153531 | 21 | 243 | 6.4 | 14.5 | 0.00 | 0.00 | 0.00 | 79 | 1015.1 |
| 20260506153043 | 21 | 244 | 6.4 | 14.5 | 0.00 | 0.00 | 0.00 | 81 | 1015.1 |
| 20260506152532 | 20 | 202 | 3.2 | 9.7 | 0.00 | 0.00 | 0.00 | 81 | 1015.3 |
| 20260506152031 | 20 | 205 | 3.2 | 12.9 | 0.00 | 0.00 | 0.00 | 81 | 1015.4 |
| 20260506151551 | 20 | 205 | 3.2 | 16.1 | 0.00 | 0.00 | 0.00 | 82 | 1015.7 |
| 20260506151032 | 20 | 255 | 6.4 | 16.1 | 0.00 | 0.00 | 0.00 | 81 | 1015.8 |
| 20260506150532 | 20 | 214 | 4.8 | 11.3 | 0.00 | 0.00 | 0.00 | 81 | 1015.3 |
| 20260506150042 | 20 | 207 | 6.4 | 14.5 | 0.00 | 0.00 | 0.00 | 81 | 1015.2 |
| 20260506145533 | 20 | 221 | 6.4 | 17.7 | 0.00 | 0.00 | 0.00 | 81 | 1015.5 |
| 20260506145032 | 20 | 192 | 6.4 | 17.7 | 0.00 | 0.00 | 0.00 | 80 | 1015.6 |
| 20260506144559 | 20 | 220 | 8.0 | 14.5 | 0.00 | 0.00 | 0.00 | 79 | 1015.6 |
| 20260506144033 | 20 | 234 | 6.4 | 14.5 | 0.00 | 0.00 | 0.00 | 79 | 1015.5 |
| 20260506143533 | 20 | 227 | 4.8 | 16.1 | 0.00 | 0.00 | 0.00 | 78 | 1015.3 |
| 20260506143038 | 20 | 236 | 6.4 | 16.1 | 0.00 | 0.00 | 0.00 | 77 | 1015.4 |
| 20260506142531 | 20 | 208 | 4.8 | 22.5 | 0.00 | 0.00 | 0.00 | 77 | 1015.3 |
| 20260506142030 | 20 | 238 | 9.7 | 22.5 | 0.00 | 0.00 | 0.00 | 77 | 1015.3 |
| 20260506141541 | 20 | 250 | 4.8 | 20.9 | 0.00 | 0.00 | 0.00 | 77 | 1015.3 |
| 20260506141034 | 20 | 227 | 8.0 | 20.9 | 0.00 | 0.00 | 0.00 | 77 | 1015.2 |
| 20260506140531 | 20 | 215 | 6.4 | 22.5 | 0.00 | 0.00 | 0.00 | 77 | 1015.2 |
| 20260506140055 | 21 | 204 | 8.0 | 22.5 | 0.00 | 0.00 | 0.00 | 77 | 1015.1 |
| 20260506135531 | 21 | 214 | 8.0 | 20.9 | 0.00 | 0.00 | 0.00 | 77 | 1014.8 |
| 20260506135031 | 21 | 202 | 9.7 | 19.3 | 0.00 | 0.00 | 0.00 | 77 | 1014.7 |
| 20260506134544 | 21 | 207 | 8.0 | 20.9 | 0.00 | 0.00 | 0.00 | 77 | 1014.5 |
| 20260506134031 | 21 | 219 | 8.0 | 20.9 | 0.00 | 0.00 | 0.00 | 77 | 1014.2 |
| 20260506133531 | 20 | 200 | 3.2 | 22.5 | 0.00 | 0.00 | 0.00 | 78 | 1014.3 |
| 20260506133045 | 20 | 223 | 8.0 | 22.5 | 0.00 | 0.00 | 0.00 | 78 | 1014.3 |
| 20260506132530 | 20 | 202 | 9.7 | 20.9 | 0.00 | 0.00 | 0.00 | 78 | 1014.3 |
| 20260506132031 | 20 | 205 | 6.4 | 17.7 | 0.00 | 0.00 | 0.00 | 78 | 1014.2 |
| 20260506131543 | 20 | 187 | 9.7 | 19.3 | 0.00 | 0.00 | 0.00 | 78 | 1014.2 |
| 20260506131031 | 20 | 182 | 9.7 | 19.3 | 0.00 | 0.00 | 0.00 | 78 | 1014.3 |
| 20260506130530 | 20 | 195 | 4.8 | 17.7 | 0.00 | 0.00 | 0.00 | 79 | 1014.2 |
| 20260506130045 | 20 | 203 | 6.4 | 17.7 | 0.00 | 0.00 | 0.00 | 79 | 1014.1 |
| 20260506125531 | 20 | 221 | 6.4 | 17.7 | 0.00 | 0.00 | 0.00 | 79 | 1014.1 |
| 20260506125031 | 20 | 207 | 8.0 | 17.7 | 0.00 | 0.00 | 0.00 | 79 | 1014.1 |
| 20260506124541 | 20 | 213 | 6.4 | 14.5 | 0.00 | 0.00 | 0.00 | 80 | 1014.2 |
| 20260506124028 | 20 | 200 | 3.2 | 14.5 | 0.00 | 0.00 | 0.00 | 80 | 1014.1 |
| 20260506123532 | 19 | 209 | 6.4 | 14.5 | 0.00 | 0.00 | 0.00 | 80 | 1014.1 |
| 20260506123050 | 19 | 0 | 3.2 | 12.9 | 0.00 | 0.00 | 0.00 | 80 | 1014.0 |
| 20260506122532 | 19 | 165 | 4.8 | 14.5 | 0.00 | 0.00 | 0.00 | 80 | 1014.0 |
| 20260506122031 | 19 | 210 | 8.0 | 14.5 | 0.00 | 0.00 | 0.00 | 80 | 1014.0 |
| 20260506121537 | 19 | 225 | 4.8 | 11.3 | 0.00 | 0.00 | 0.00 | 80 | 1014.2 |
| 20260506121033 | 19 | 223 | 4.8 | 11.3 | 0.00 | 0.00 | 0.00 | 80 | 1014.1 |
| 20260506120533 | 19 | 217 | 4.8 | 14.5 | 0.00 | 0.00 | 0.00 | 80 | 1014.1 |
| 20260506120050 | 19 | 224 | 4.8 | 14.5 | 0.00 | 0.00 | 0.00 | 80 | 1013.8 |
| 20260506115532 | 19 | 189 | 4.8 | 14.5 | 0.00 | 0.00 | 0.00 | 80 | 1013.8 |
| 20260506115031 | 19 | 191 | 6.4 | 12.9 | 0.00 | 0.00 | 0.00 | 80 | 1013.9 |
| 20260506114542 | 19 | 196 | 6.4 | 16.1 | 0.00 | 0.00 | 0.00 | 80 | 1014.0 |
| 20260506114031 | 19 | 182 | 6.4 | 16.1 | 0.00 | 0.00 | 0.00 | 80 | 1013.8 |
| 20260506113532 | 19 | 196 | 4.8 | 14.5 | 0.00 | 0.00 | 0.00 | 80 | 1013.9 |
| 20260506113047 | 19 | 204 | 6.4 | 14.5 | 0.00 | 0.00 | 0.00 | 80 | 1013.7 |
| 20260506112530 | 19 | 222 | 4.8 | 14.5 | 0.00 | 0.00 | 0.00 | 80 | 1013.6 |
| 20260506112031 | 19 | 209 | 4.8 | 16.1 | 0.00 | 0.00 | 0.00 | 80 | 1013.4 |
| 20260506111537 | 19 | 211 | 6.4 | 17.7 | 0.00 | 0.00 | 0.00 | 80 | 1013.5 |
| 20260506111033 | 19 | 195 | 6.4 | 17.7 | 0.00 | 0.00 | 0.00 | 80 | 1013.5 |
| 20260506110533 | 19 | 217 | 4.8 | 16.1 | 0.00 | 0.00 | 0.00 | 80 | 1013.5 |
| 20260506110038 | 19 | 211 | 4.8 | 12.9 | 0.00 | 0.00 | 0.00 | 81 | 1013.4 |
| 20260506105530 | 19 | 193 | 4.8 | 11.3 | 0.00 | 0.00 | 0.00 | 80 | 1013.4 |
| 20260506105031 | 19 | 191 | 4.8 | 11.3 | 0.00 | 0.00 | 0.00 | 80 | 1013.5 |
| 20260506104549 | 19 | 211 | 6.4 | 11.3 | 0.00 | 0.00 | 0.00 | 80 | 1013.5 |
| 20260506104032 | 19 | 207 | 3.2 | 12.9 | 0.00 | 0.00 | 0.00 | 80 | 1013.3 |
| 20260506103531 | 19 | 202 | 3.2 | 12.9 | 0.00 | 0.00 | 0.00 | 79 | 1013.2 |
| 20260506103043 | 19 | 251 | 4.8 | 12.9 | 0.00 | 0.00 | 0.00 | 79 | 1013.2 |
| 20260506102529 | 19 | 216 | 6.4 | 12.9 | 0.00 | 0.00 | 0.00 | 79 | 1013.1 |
| 20260506102031 | 19 | 230 | 4.8 | 16.1 | 0.00 | 0.00 | 0.00 | 79 | 1013.0 |
| 20260506101547 | 19 | 232 | 6.4 | 16.1 | 0.00 | 0.00 | 0.00 | 78 | 1013.0 |
| 20260506101028 | 19 | 217 | 8.0 | 17.7 | 0.00 | 0.00 | 0.00 | 78 | 1013.1 |
| 20260506100531 | 19 | 195 | 8.0 | 17.7 | 0.00 | 0.00 | 0.00 | 78 | 1012.9 |
| 20260506100040 | 19 | 194 | 8.0 | 17.7 | 0.00 | 0.00 | 0.00 | 78 | 1012.7 |
| 20260506095528 | 19 | 223 | 8.0 | 16.1 | 0.00 | 0.00 | 0.00 | 77 | 1012.7 |
| 20260506095033 | 19 | 215 | 6.4 | 19.3 | 0.00 | 0.00 | 0.00 | 77 | 1012.7 |
| 20260506094536 | 19 | 182 | 11.3 | 19.3 | 0.00 | 0.00 | 0.00 | 77 | 1012.4 |
| 20260506094031 | 19 | 204 | 8.0 | 16.1 | 0.00 | 0.00 | 0.00 | 76 | 1012.2 |
| 20260506093531 | 19 | 269 | 6.4 | 24.1 | 0.00 | 0.00 | 0.00 | 76 | 1012.3 |
| 20260506093042 | 19 | 159 | 9.7 | 24.1 | 0.00 | 0.00 | 0.00 | 76 | 1012.2 |
| 20260506092532 | 19 | 209 | 9.7 | 25.7 | 0.00 | 0.00 | 0.00 | 75 | 1012.4 |
| 20260506092031 | 19 | 219 | 11.3 | 25.7 | 0.00 | 0.00 | 0.00 | 75 | 1012.3 |
| 20260506091541 | 20 | 219 | 4.8 | 16.1 | 0.00 | 0.00 | 0.00 | 74 | 1012.1 |
| 20260506091031 | 20 | 246 | 8.0 | 16.1 | 0.00 | 0.00 | 0.00 | 74 | 1012.4 |
| 20260506090533 | 20 | 215 | 4.8 | 12.9 | 0.00 | 0.00 | 0.00 | 73 | 1012.4 |
| 20260506090040 | 20 | 220 | 6.4 | 29.0 | 0.00 | 0.00 | 0.00 | 73 | 1012.3 |
| 20260506085531 | 20 | 172 | 11.3 | 29.0 | 0.00 | 0.00 | 0.00 | 73 | 1012.2 |
| 20260506085028 | 20 | 171 | 8.0 | 22.5 | 0.00 | 0.00 | 0.00 | 72 | 1012.3 |
| 20260506084542 | 20 | 198 | 9.7 | 22.5 | 0.00 | 0.00 | 0.00 | 72 | 1012.4 |
| 20260506084031 | 20 | 223 | 4.8 | 19.3 | 0.00 | 0.00 | 0.00 | 71 | 1012.5 |
| 20260506083532 | 20 | 197 | 8.0 | 19.3 | 0.00 | 0.00 | 0.00 | 71 | 1012.4 |
| 20260506083043 | 20 | 188 | 6.4 | 14.5 | 0.00 | 0.00 | 0.00 | 71 | 1012.3 |
| 20260506082531 | 20 | 218 | 4.8 | 14.5 | 0.00 | 0.00 | 0.00 | 70 | 1012.2 |
| 20260506082032 | 20 | 165 | 4.8 | 14.5 | 0.00 | 0.00 | 0.00 | 70 | 1012.3 |
| 20260506081624 | 20 | 189 | 8.0 | 20.9 | 0.00 | 0.00 | 0.00 | 70 | 1012.2 |
| 20260506081542 | 20 | 189 | 8.0 | 20.9 | 0.00 | 0.00 | 0.00 | 70 | 1012.2 |
| 20260506081035 | 20 | 222 | 4.8 | 20.9 | 0.00 | 0.00 | 0.00 | 69 | 1012.2 |
| 20260506080532 | 20 | 210 | 6.4 | 20.9 | 0.00 | 0.00 | 0.00 | 69 | 1012.1 |
| 20260506073529 | 20 | 180 | 8.0 | 12.9 | 0.00 | 0.00 | 0.00 | 68 | 1012.4 |
| 20260506073039 | 20 | 213 | 4.8 | 12.9 | 0.00 | 0.00 | 0.00 | 67 | 1012.4 |
| 20260506072529 | 20 | 173 | 4.8 | 16.1 | 0.00 | 0.00 | 0.00 | 67 | 1012.4 |
| 20260506072028 | 20 | 209 | 4.8 | 19.3 | 0.00 | 0.00 | 0.00 | 66 | 1012.2 |
| 20260506071545 | 20 | 163 | 8.0 | 19.3 | 0.00 | 0.00 | 0.00 | 66 | 1012.4 |
| 20260506071033 | 21 | 206 | 4.8 | 16.1 | 0.00 | 0.00 | 0.00 | 66 | 1012.7 |
| 20260506070531 | 21 | 216 | 6.4 | 12.9 | 0.00 | 0.00 | 0.00 | 65 | 1013.0 |
| 20260506062033 | 21 | 200 | 6.4 | 19.3 | 0.00 | 0.00 | 0.00 | 60 | 1013.4 |
| 20260506061541 | 21 | 225 | 9.7 | 24.1 | 0.00 | 0.00 | 0.00 | 60 | 1013.5 |
| 20260506061029 | 21 | 185 | 8.0 | 24.1 | 0.00 | 0.00 | 0.00 | 60 | 1013.5 |
| 20260506060532 | 21 | 194 | 6.4 | 20.9 | 0.00 | 0.00 | 0.00 | 59 | 1013.5 |
| 20260506051033 | 21 | 190 | 3.2 | 9.7 | 0.00 | 0.00 | 0.00 | 54 | 1013.4 |
| 20260506050532 | 21 | 196 | 1.6 | 8.0 | 0.00 | 0.00 | 0.00 | 54 | 1013.4 |
| 20260506045030 | 21 | 243 | 3.2 | 12.9 | 0.00 | 0.00 | 0.00 | 53 | 1012.9 |
| 20260506044557 | 21 | 145 | 3.2 | 12.9 | 0.00 | 0.00 | 0.00 | 53 | 1012.8 |
| 20260506044029 | 21 | 142 | 3.2 | 11.3 | 0.00 | 0.00 | 0.00 | 53 | 1013.0 |
| 20260506043529 | 21 | 178 | 1.6 | 9.7 | 0.00 | 0.00 | 0.00 | 53 | 1013.3 |
| 20260506043044 | 21 | 153 | 3.2 | 11.3 | 0.00 | 0.00 | 0.00 | 52 | 1013.4 |
| 20260506042531 | 21 | 203 | 3.2 | 11.3 | 0.00 | 0.00 | 0.00 | 52 | 1013.3 |
| 20260506042029 | 21 | 209 | 1.6 | 8.0 | 0.00 | 0.00 | 0.00 | 52 | 1013.4 |
| 20260506041542 | 21 | 163 | 1.6 | 8.0 | 0.00 | 0.00 | 0.00 | 52 | 1013.4 |
| 20260506041028 | 21 | 233 | 3.2 | 8.0 | 0.00 | 0.00 | 0.00 | 52 | 1013.5 |
| 20260506040530 | 21 | 169 | 1.6 | 6.4 | 0.00 | 0.00 | 0.00 | 51 | 1013.3 |
| 20260506040046 | 21 | 170 | 3.2 | 9.7 | 0.00 | 0.00 | 0.00 | 51 | 1013.3 |
| 20260506035532 | 21 | 246 | 3.2 | 9.7 | 0.00 | 0.00 | 0.00 | 50 | 1013.3 |
| 20260506035028 | 21 | 146 | 1.6 | 11.3 | 0.00 | 0.00 | 0.00 | 50 | 1013.3 |
| 20260506034539 | 21 | 163 | 3.2 | 11.3 | 0.00 | 0.00 | 0.00 | 49 | 1013.3 |
| 20260506034031 | 21 | 210 | 1.6 | 9.7 | 0.00 | 0.00 | 0.00 | 49 | 1013.3 |
| 20260506033531 | 21 | 116 | 3.2 | 9.7 | 0.00 | 0.00 | 0.00 | 48 | 1013.3 |
| 20260506033047 | 21 | 132 | 1.6 | 11.3 | 0.00 | 0.00 | 0.00 | 47 | 1013.3 |
| 20260506032531 | 21 | 0 | 3.2 | 11.3 | 0.00 | 0.00 | 0.00 | 47 | 1013.4 |
| 20260506032031 | 21 | 156 | 3.2 | 8.0 | 0.00 | 0.00 | 0.00 | 46 | 1013.3 |
| 20260506031542 | 21 | 133 | 0.0 | 9.7 | 0.00 | 0.00 | 0.00 | 46 | 1013.3 |
| 20260506031030 | 22 | 142 | 3.2 | 11.3 | 0.00 | 0.00 | 0.00 | 45 | 1013.4 |
| 20260506030528 | 22 | 173 | 4.8 | 11.3 | 0.00 | 0.00 | 0.00 | 45 | 1013.3 |
| 20260506030042 | 22 | 170 | 3.2 | 11.3 | 0.00 | 0.00 | 0.00 | 45 | 1013.4 |
| 20260506025530 | 22 | 169 | 3.2 | 11.3 | 0.00 | 0.00 | 0.00 | 45 | 1013.3 |
| 20260506025033 | 22 | 138 | 1.6 | 8.0 | 0.00 | 0.00 | 0.00 | 45 | 1013.3 |
| 20260506024544 | 22 | 180 | 1.6 | 12.9 | 0.00 | 0.00 | 0.00 | 45 | 1013.4 |
| 20260506024029 | 22 | 167 | 3.2 | 14.5 | 0.00 | 0.00 | 0.00 | 45 | 1013.5 |
| 20260506023531 | 22 | 169 | 3.2 | 14.5 | 0.00 | 0.00 | 0.00 | 45 | 1013.4 |
| 20260506023049 | 22 | 0 | 3.2 | 9.7 | 0.00 | 0.00 | 0.00 | 45 | 1013.3 |
| 20260506022528 | 22 | 0 | 1.6 | 11.3 | 0.00 | 0.00 | 0.00 | 45 | 1013.3 |
| 20260506022031 | 22 | 219 | 3.2 | 11.3 | 0.00 | 0.00 | 0.00 | 45 | 1013.2 |
| 20260506021555 | 22 | 150 | 3.2 | 8.0 | 0.00 | 0.00 | 0.00 | 46 | 1013.2 |
| 20260506021029 | 22 | 189 | 1.6 | 6.4 | 0.00 | 0.00 | 0.00 | 45 | 1013.2 |
| 20260506020528 | 22 | 211 | 0.0 | 8.0 | 0.00 | 0.00 | 0.00 | 45 | 1013.2 |
| 20260506020042 | 22 | 215 | 1.6 | 8.0 | 0.00 | 0.00 | 0.00 | 46 | 1013.2 |
| 20260506015532 | 22 | 177 | 1.6 | 6.4 | 0.00 | 0.00 | 0.00 | 45 | 1013.2 |
| 20260506015031 | 22 | 178 | 1.6 | 9.7 | 0.00 | 0.00 | 0.00 | 45 | 1013.1 |
| 20260506014543 | 22 | 177 | 0.0 | 14.5 | 0.00 | 0.00 | 0.00 | 45 | 1013.0 |
| 20260506014030 | 22 | 0 | 1.6 | 14.5 | 0.00 | 0.00 | 0.00 | 45 | 1013.0 |
| 20260506013529 | 22 | 202 | 3.2 | 14.5 | 0.00 | 0.00 | 0.00 | 45 | 1013.1 |
| 20260506013040 | 22 | 203 | 1.6 | 9.7 | 0.00 | 0.00 | 0.00 | 45 | 1013.1 |
| 20260506012531 | 22 | 202 | 1.6 | 9.7 | 0.00 | 0.00 | 0.00 | 45 | 1013.0 |
| 20260506012030 | 22 | 229 | 4.8 | 9.7 | 0.00 | 0.00 | 0.00 | 45 | 1012.9 |
| 20260506011538 | 22 | 191 | 1.6 | 9.7 | 0.00 | 0.00 | 0.00 | 45 | 1012.8 |
| 20260506011030 | 22 | 199 | 1.6 | 9.7 | 0.00 | 0.00 | 0.00 | 44 | 1012.8 |
| 20260506010529 | 22 | 204 | 3.2 | 11.3 | 0.00 | 0.00 | 0.00 | 44 | 1012.8 |
| 20260506010048 | 22 | 219 | 1.6 | 16.1 | 0.00 | 0.00 | 0.00 | 44 | 1012.7 |
| 20260506005528 | 23 | 213 | 4.8 | 16.1 | 0.00 | 0.00 | 0.00 | 44 | 1012.8 |
| 20260506005028 | 23 | 217 | 6.4 | 16.1 | 0.00 | 0.00 | 0.00 | 43 | 1012.9 |
| 20260506004547 | 23 | 196 | 6.4 | 16.1 | 0.00 | 0.00 | 0.00 | 43 | 1012.8 |
| 20260506004028 | 23 | 211 | 4.8 | 16.1 | 0.00 | 0.00 | 0.00 | 42 | 1012.9 |
| 20260506003529 | 23 | 238 | 6.4 | 17.7 | 0.00 | 0.00 | 0.00 | 42 | 1013.0 |
| 20260506003042 | 23 | 213 | 8.0 | 17.7 | 0.00 | 0.00 | 0.00 | 42 | 1012.9 |
| 20260506002528 | 23 | 198 | 4.8 | 14.5 | 0.00 | 0.00 | 0.00 | 42 | 1012.9 |
| 20260506002030 | 23 | 211 | 6.4 | 14.5 | 0.00 | 0.00 | 0.00 | 41 | 1012.8 |
| 20260506001546 | 23 | 207 | 6.4 | 12.9 | 0.00 | 0.00 | 0.00 | 41 | 1012.8 |
| 20260506001029 | 23 | 208 | 4.8 | 11.3 | 0.00 | 0.00 | 0.00 | 41 | 1012.9 |
| 20260506000531 | 23 | 205 | 6.4 | 16.1 | 0.00 | 0.00 | 0.00 | 40 | 1012.9 |
| 20260506000042 | 24 | 225 | 4.8 | 20.9 | 0.00 | 0.00 | 0.00 | 40 | 1012.9 |
| 20260505235528 | 24 | 215 | 8.0 | 20.9 | 0.00 | 0.00 | 0.00 | 40 | 1012.9 |
| 20260505235029 | 24 | 197 | 8.0 | 16.1 | 0.00 | 0.00 | 0.00 | 40 | 1012.8 |
| 20260505234604 | 24 | 212 | 6.4 | 17.7 | 0.00 | 0.00 | 0.00 | 40 | 1012.9 |
| 20260505234030 | 24 | 227 | 6.4 | 17.7 | 0.00 | 0.00 | 0.00 | 40 | 1012.9 |
| 20260505233530 | 24 | 224 | 6.4 | 16.1 | 0.00 | 0.00 | 0.00 | 40 | 1012.9 |
| 20260505233043 | 25 | 202 | 4.8 | 14.5 | 0.00 | 0.00 | 0.00 | 40 | 1012.8 |
| 20260505232528 | 25 | 192 | 3.2 | 14.5 | 0.00 | 0.00 | 0.00 | 40 | 1012.8 |
| 20260505232029 | 25 | 229 | 4.8 | 14.5 | 0.00 | 0.00 | 0.00 | 40 | 1012.8 |
| 20260505231541 | 25 | 215 | 4.8 | 14.5 | 0.00 | 0.00 | 0.00 | 39 | 1012.8 |
| 20260505231030 | 25 | 134 | 0.0 | 8.0 | 0.00 | 0.00 | 0.00 | 40 | 1012.7 |
| 20260505230530 | 25 | 0 | 1.6 | 11.3 | 0.00 | 0.00 | 0.00 | 39 | 1012.6 |
| 20260505230039 | 25 | 189 | 3.2 | 11.3 | 0.00 | 0.00 | 0.00 | 38 | 1012.4 |
| 20260505225528 | 25 | 138 | 4.8 | 12.9 | 0.00 | 0.00 | 0.00 | 38 | 1012.4 |
| 20260505225030 | 25 | 220 | 6.4 | 14.5 | 0.00 | 0.00 | 0.00 | 38 | 1012.7 |
| 20260505224539 | 25 | 217 | 4.8 | 14.5 | 0.00 | 0.00 | 0.00 | 38 | 1012.8 |
| 20260505224033 | 25 | 231 | 4.8 | 12.9 | 0.00 | 0.00 | 0.00 | 38 | 1012.8 |
| 20260505223530 | 25 | 208 | 4.8 | 12.9 | 0.00 | 0.00 | 0.00 | 39 | 1012.8 |